FW7898 Weather Reports


time (UTC)temp
C
wind
direction
speed
KPH
gust
KPH
rain 1hr
cm
rain 24hr
cm
rain mn
cm
humidity
%
barometer
mb
20260507083102 12 0 0.0 0.0 0.00 0.00 0.00 65 1011.9
20260507081559 12 0 0.0 0.0 0.00 0.00 0.00 63 1011.9
20260507080135 13 0 0.0 0.0 0.00 0.00 0.00 62 1012.1
20260507074605 13 0 0.0 1.6 0.00 0.00 0.00 61 1012.2
20260507073111 14 0 0.0 0.0 0.00 0.00 0.00 59 1012.3
20260507071606 14 0 0.0 1.6 0.00 0.00 0.00 56 1012.3
20260507070057 15 0 0.0 1.6 0.00 0.00 0.00 55 1012.3
20260507064600 14 0 0.0 1.6 0.00 0.00 0.00 55 1012.2
20260507063102 14 0 0.0 0.0 0.00 0.00 0.00 55 1012.1
20260507061559 15 0 0.0 0.0 0.00 0.00 0.00 54 1012.2
20260507060103 16 0 0.0 0.0 0.00 0.00 0.00 50 1012.3
20260507054605 16 0 0.0 0.0 0.00 0.00 0.00 46 1012.4
20260507053100 17 0 0.0 0.0 0.00 0.00 0.00 45 1012.3
20260507051601 17 0 0.0 0.0 0.00 0.00 0.00 44 1012.3
20260507050100 17 0 0.0 0.0 0.00 0.00 0.00 44 1012.3
20260507044623 18 0 0.0 1.6 0.00 0.00 0.00 45 1012.2
20260507043058 18 0 0.0 1.6 0.00 0.00 0.00 48 1012.1
20260507041604 17 0 0.0 1.6 0.00 0.00 0.00 48 1012.0
20260507040110 17 0 0.0 0.0 0.00 0.00 0.00 50 1012.0
20260507034603 18 0 0.0 0.0 0.00 0.00 0.00 48 1011.7
20260507033058 20 0 0.0 0.0 0.00 0.00 0.00 45 1011.6
20260507031602 21 0 0.0 0.0 0.00 0.00 0.00 42 1011.6
20260507030100 22 0 0.0 1.6 0.00 0.00 0.00 38 1011.3
20260507024602 23 263 0.0 3.2 0.00 0.00 0.00 37 1011.2
20260507023100 23 263 1.6 9.7 0.00 0.00 0.00 37 1011.3
20260507021558 23 263 4.8 17.7 0.00 0.00 0.00 37 1011.3
20260507020104 24 360 8.0 20.9 0.00 0.00 0.00 37 1011.3
20260507014608 25 360 8.0 19.3 0.00 0.00 0.00 41 1011.3
20260507013059 25 360 12.9 20.9 0.00 0.00 0.00 41 1011.2
20260507011604 25 360 12.9 22.5 0.00 0.00 0.00 39 1011.1
20260507010059 25 360 9.7 22.5 0.00 0.00 0.00 39 1011.1
20260507004602 25 360 16.1 25.7 0.00 0.00 0.00 39 1011.2
20260507003100 25 360 19.3 29.0 0.00 0.00 0.00 39 1011.1
20260507001614 25 360 17.7 27.4 0.00 0.00 0.00 39 1010.9
20260506234603 25 360 19.3 29.0 0.00 0.00 0.00 41 1011.0
20260506233059 25 360 20.9 29.0 0.00 0.00 0.00 42 1010.9
20260506231559 25 360 19.3 32.2 0.00 0.00 0.00 45 1011.2
20260506230059 25 360 20.9 32.2 0.00 0.00 0.00 44 1011.4
20260506224559 26 360 16.1 25.7 0.00 0.00 0.00 42 1011.3
20260506223057 26 360 17.7 29.0 0.00 0.00 0.00 39 1011.3
20260506221601 26 360 17.7 29.0 0.00 0.00 0.00 40 1011.5
20260506220108 26 360 16.1 27.4 0.00 0.00 0.00 38 1011.7
20260506214557 27 360 12.9 30.6 0.00 0.00 0.00 40 1012.0
20260506213102 26 360 12.9 29.0 0.00 0.00 0.00 39 1012.1
20260506211558 26 360 12.9 27.4 0.00 0.00 0.00 39 1012.1
20260506210120 27 360 11.3 20.9 0.00 0.00 0.00 36 1012.2
20260506204558 27 360 16.1 25.7 0.00 0.00 0.00 37 1012.3
20260506203141 27 360 16.1 29.0 0.00 0.00 0.00 38 1012.4
20260506201558 27 360 12.9 25.7 0.00 0.00 0.00 37 1012.5
20260506200059 27 360 11.3 30.6 0.00 0.00 0.00 37 1012.3
20260506194558 27 258 12.9 24.1 0.00 0.00 0.00 35 1012.7
20260506193057 27 291 6.4 14.5 0.00 0.00 0.00 27 1013.0
20260506191605 27 299 3.2 16.1 0.00 0.00 0.00 29 1013.0
20260506190100 26 0 0.0 12.9 0.00 0.00 0.00 29 1013.2
20260506184601 27 287 1.6 20.9 0.00 0.00 0.00 29 1013.3
20260506183111 26 0 6.4 12.9 0.00 0.00 0.00 30 1013.5
20260506181601 26 0 0.0 4.8 0.00 0.00 0.00 30 1013.7
20260506174609 25 306 3.2 12.9 0.00 0.00 0.00 31 1013.8
20260506173059 25 309 0.0 12.9 0.00 0.00 0.00 32 1013.8
20260506171610 25 0 0.0 8.0 0.00 0.00 0.00 34 1013.8
20260506170100 25 308 1.6 12.9 0.00 0.00 0.00 35 1014.0
20260506164601 24 360 0.0 6.4 0.00 0.00 0.00 36 1013.8
20260506163133 23 360 1.6 6.4 0.00 0.00 0.00 39 1013.8
20260506161557 23 0 3.2 9.7 0.00 0.00 0.00 41 1013.5
20260506154557 22 360 3.2 9.7 0.00 0.00 0.00 45 1013.4
20260506153119 21 360 1.6 12.9 0.00 0.00 0.00 47 1013.5
20260506151558 21 360 3.2 16.1 0.00 0.00 0.00 50 1013.5
20260506150056 20 360 3.2 16.1 0.00 0.00 0.00 52 1013.3
20260506144558 20 265 3.2 14.5 0.00 0.00 0.00 53 1013.4
20260506143058 18 0 1.6 11.3 0.00 0.00 0.00 54 1013.4
20260506141555 17 0 0.0 3.2 0.00 0.00 0.00 58 1013.2
20260506140057 16 239 0.0 4.8 0.00 0.00 0.00 66 1013.5
20260506134556 14 0 0.0 1.6 0.00 0.00 0.00 75 1013.1
20260506133100 12 0 0.0 1.6 0.00 0.00 0.00 78 1013.1
20260506131608 10 0 0.0 0.0 0.00 0.00 0.00 78 1012.8
20260506130059 10 0 0.0 0.0 0.00 0.00 0.00 79 1012.7
20260506124608 10 0 0.0 0.0 0.00 0.00 0.00 79 1012.4
20260506123114 10 0 0.0 0.0 0.00 0.00 0.00 79 1012.2
20260506121613 10 0 0.0 0.0 0.00 0.00 0.00 79 1012.3
20260506120058 10 0 0.0 0.0 0.00 0.00 0.00 78 1012.2
20260506114610 10 0 0.0 0.0 0.00 0.00 0.00 78 1012.0
20260506113058 10 0 0.0 0.0 0.00 0.00 0.00 78 1011.9
20260506111602 10 0 0.0 0.0 0.00 0.00 0.00 78 1012.0
20260506110104 11 0 0.0 0.0 0.00 0.00 0.00 78 1012.0
20260506104607 11 0 0.0 0.0 0.00 0.00 0.00 78 1012.0
20260506103106 11 0 0.0 0.0 0.00 0.00 0.00 77 1011.9
20260506101637 11 0 0.0 1.6 0.00 0.00 0.00 77 1012.0
20260506100100 11 0 0.0 1.6 0.00 0.00 0.00 77 1011.9
20260506094600 11 0 0.0 0.0 0.00 0.00 0.00 77 1011.9
20260506093102 12 0 0.0 1.6 0.00 0.00 0.00 77 1011.8
20260506091559 12 0 0.0 0.0 0.00 0.00 0.00 76 1011.9
20260506090111 13 0 0.0 0.0 0.00 0.00 0.00 76 1011.8
20260506084633 13 0 0.0 0.0 0.00 0.00 0.00 74 1011.8